SITRO-AIS 12 (SMIRENNIY)

Last updated on Wed Nov 05 2025 00:03:48 GMT+0000 (Coordinated Universal Time)

1 57204U 23091AQ 25308.59914468 .00017888 00000+0 63706-3 0 9993 2 57204 97.5425 10.1617 0009140 140.2859 219.9052 15.28962349130349
UTC large
Height (km)
Speed (km/s)
/
Latitude / Longitude
Inclination (degrees)
Orbital Period (minutes)
Azimuth
Elevation
Range (km)
Doppler Factor

Next 0 passes for location: London (51.5072 / 0.1276)

Sorry there are no passes over London.